Overview Statistics Trail Chart Weather Telemetry Raw packets
 

This is the latest recevied weather packets stored in our database for station/object W8RSN-13. If no packets are shown the sender has not sent any weather packets the latest 10 day(s).

<< 77 78 79 80 81 82 83 >>
Time Temp. Humidity Pressure Rain* Wind** Luminosity Snow
1788126873 35° C 33% 1012.4 hPa - - - -
1788126572 35° C 36% 1012.4 hPa - - - -
1788126272 35° C 34% 1012.6 hPa - - - -
1788125970 35.56° C 33% 1012.8 hPa - - - -
1788125677 34.44° C 40% 1012.4 hPa - - - -
1788125369 35.56° C 37% 1012.8 hPa - - - -
1788125068 35.56° C 37% 1012.9 hPa - - - -
1788124767 35° C 39% 1013 hPa - - - -
1788124466 33.89° C 40% 1012.8 hPa - - - -
1788124165 34.44° C 41% 1013 hPa - - - -
1788123864 33.89° C 43% 1013.1 hPa - - - -
1788123563 33.33° C 44% 1013.2 hPa - - - -
1788123263 33.33° C 44% 1013 hPa - - - -
1788122962 33.33° C 44% 1013.2 hPa - - - -
1788122661 33.33° C 43% 1013.4 hPa - - - -
1788122360 32.78° C 44% 1013.5 hPa - - - -
1788122059 32.78° C 44% 1013.5 hPa - - - -
1788121758 32.78° C 44% 1013.6 hPa - - - -
1788121457 32.78° C 44% 1013.3 hPa - - - -
1788121156 32.22° C 45% 1013.5 hPa - - - -
1788120875 32.78° C 44% 1013.5 hPa - - - -
1788120574 32.78° C 44% 1013.9 hPa - - - -
1788120274 32.22° C 44% 1013.7 hPa - - - -
1788119973 32.78° C 43% 1013.9 hPa - - - -
1788119672 32.22° C 44% 1013.8 hPa - - - -

* Rain since midnight (hover to see other rain measurements)
** Current wind speed in m/s (hover to see current wind gust speed)